Location: Haut Feil
(48.1692°N, 1.0425°W)
Time: 20:07:49
(UTC+00:00)

Daily predictions for brighter satellites

Satellite Brightness Start Highest point End
(mag) Time Altitude Azimuth Time Altitude Azimuth Time Altitude Azimuth
Cosmos 1943 4.5 18:17:15 10° NW 18:22:38 46° WSW 18:28:00 10° S
Sich 1 Rocket 3.7 18:19:34 10° S 18:23:59 56° E 18:28:27 10° NNE
NOSS 2-2 (E) 3.3 18:20:43 10° SW 18:24:14 77° NW 18:28:18 10° NE
CENTAUR R/B 3.4 18:16:29 10° NW 18:24:14 59° NE 18:32:51 10° ESE
Cosmos 1833 Rocket 4.4 18:21:48 10° N 18:25:32 18° NE 18:29:15 10° E
Cosmos 2298 Rocket 4.4 18:20:58 10° S 18:25:57 42° ESE 18:30:56 10° NE
Cosmos 1437 4.0 18:23:30 10° NNW 18:26:24 44° W 18:29:15 10° S
Cosmos 1975 3.4 18:23:10 10° SSW 18:27:13 64° WNW 18:31:16 10° N
Iridium 4 Rocket 3.8 18:23:13 10° S 18:28:26 83° W 18:34:08 10° N
CSL-04 Debris 4.3 18:25:36 10° SE 18:30:51 56° ENE 18:36:08 10° N
Helios 1A Rocket 3.6 18:28:31 10° S 18:32:36 61° WSW 18:36:43 10° NNW
CSL-04 Rocket 3.8 18:27:30 10° SE 18:32:49 56° ENE 18:38:14 10° N
ATLAS 2AS CENTAUR R/B 3.9 18:27:50 10° SSE 18:33:55 25° ESE 18:40:01 10° ENE
Cosmos 1025 Rocket 3.3 18:29:44 10° N 18:34:01 48° ENE 18:38:16 10° SSE
Cosmos 1937 Rocket 4.1 18:28:53 10° SW 18:34:05 62° WNW 18:39:15 10° NNE
NOSS 2-2 (D) 3.3 18:30:35 10° SW 18:34:06 78° NW 18:38:05 10° NE
Okean 2 Rocket 3.4 18:29:57 10° SSE 18:34:13 45° E 18:38:29 10° NNE
YAOGAN 1 2.5 18:31:01 10° SSE 18:35:20 78° ENE 18:39:41 10° N
ATLAS 3B R/B 3.7 18:30:15 10° NW 18:36:17 32° NNE 18:42:30 10° E
SKYMED 2 4.0 18:33:52 10° N 18:38:12 68° WNW 18:42:30 10° SSW
Abrixas rocket 1.8 18:36:46 10° W 18:39:38 77° S 18:42:11 12° ESE
CREW DRAGON DEMO-1 DEB 2.8 18:38:32 10° WNW 18:41:34 76° NNE 18:44:16 12° ESE
Cosmos 1536 Rocket 3.9 18:39:28 10° N 18:43:47 46° ENE 18:48:05 10° SSE
Cosmos 1125 Rocket 4.0 18:41:42 10° S 18:46:35 39° ESE 18:51:31 10° NE
SJ-6B 4.1 18:48:31 13° ESE 18:50:47 21° ENE 18:53:39 10° NNE
CZ-4 R/B 2.2 18:48:48 10° S 18:52:57 58° W 18:57:05 10° NNW
Cosmos 2150 Rocket 4.1 18:48:06 10° S 18:53:26 65° ESE 18:58:52 10° NNE
USA 238 DEB 4.0 18:46:30 10° NW 18:53:45 84° SW 19:01:15 10° SE
USA 238 4.0 18:46:37 10° NW 18:53:51 84° SW 19:01:22 10° SE
SJ-11-01 4.2 18:49:19 10° SSE 18:54:00 73° ENE 18:58:42 10° N
CZ-2C R/B 3.2 18:49:40 10° SSE 18:55:04 89° ENE 19:00:47 10° NNW
Cosmos 1464 Rocket 3.9 18:49:01 10° S 18:55:07 73° E 19:01:18 10° NNE
Cosmos 1674 3.2 18:52:32 10° N 18:56:10 38° ENE 18:59:46 10° SE
Okean-O 3.7 18:52:33 10° S 18:56:50 48° W 19:01:09 10° NNW
Cosmos 1092 Rocket 4.4 18:51:16 10° N 18:57:03 40° ENE 19:02:50 10° SE
Cosmos 2285 Rocket 4.3 18:51:28 10° S 18:57:19 42° ESE 19:03:15 10° NE
MOS 1 Rocket 3.2 18:58:49 10° NNE 19:03:06 53° E 19:07:16 10° S
FREGAT/IRIS 4.0 19:04:41 18° ENE 19:04:41 18° ENE 19:06:19 10° NNE
In-Cosmos 22 4.3 19:05:05 10° NNW 19:10:25 76° W 19:15:47 10° S
ARGOS 3.1 19:05:20 10° SSE 19:10:40 74° ENE 19:16:04 10° N
Cosmos 1048 Rocket 4.3 19:06:11 10° NNW 19:11:31 73° WSW 19:16:51 10° SSE
CZ-2C R/B 3.2 19:08:10 10° NNE 19:13:18 36° E 19:18:27 10° SSE
Cosmos 1340 Rocket 4.2 19:15:11 19° ENE 19:15:11 19° ENE 19:17:29 10° NE
Cosmos 1733 4.0 19:13:48 16° SE 19:16:09 29° E 19:19:31 10° NNE
Cosmos 2151 Rocket 3.6 19:12:22 10° S 19:16:51 88° E 19:21:23 10° N
Lacrosse 5 rocket 3.1 19:13:51 10° NW 19:17:34 26° N 19:20:43 13° ENE
HJ-1C 3.9 19:14:21 10° S 19:17:36 59° W 19:20:54 10° NNW
Cosmos 2082 Rocket 3.6 19:14:29 10° N 19:18:54 23° NE 19:21:17 18° ENE
BREEZE-M DEB (TANK) 3.5 19:18:45 10° W 19:21:45 46° SSW 19:27:36 16° SE
BREEZE-M R/B 4.2 19:10:30 10° WSW 19:22:28 67° SSE 19:24:25 26° E
Cosmos 494 Rocket 4.0 19:19:01 10° NNW 19:24:19 85° WSW 19:29:36 10° SSE
Meteor 1-15 Rocket 4.2 19:21:54 10° S 19:27:32 74° E 19:33:18 10° NNE
Cosmos 1805 3.2 19:24:09 10° S 19:27:58 57° E 19:31:50 10° NNE
OBJECT-B 2.0 19:28:48 25° ENE 19:28:48 25° ENE 19:31:11 10° N
Milstar 3 Cent rocket 4.4 19:28:32 10° SSW 19:30:18 11° S 19:31:53 10° SSE
Ariane Rocket 2.9 19:28:06 13° SSE 19:32:32 70° ENE 19:37:37 10° N
SL-08 RB Rocket 3.6 19:28:00 10° SSE 19:32:34 84° ENE 19:37:08 10° NNW
H-2A R/B 2.7 19:29:08 10° S 19:34:01 55° W 19:39:06 10° NNW
Cosmos 1269 Rocket 4.0 19:30:57 10° NNW 19:36:16 71° ENE 19:39:33 24° SE
Nadezhda 4 Rocket 4.2 19:31:33 10° NNW 19:37:38 70° W 19:43:43 10° S
KORONAS-FOTON 4.0 19:33:50 10° NNW 19:37:46 73° W 19:41:32 11° S
Cosmos 1626 2.2 19:37:52 10° N 19:41:31 53° ENE 19:42:02 48° ESE
USA 186 1.9 19:42:34 29° S 19:44:04 73° W 19:47:22 10° NNW
MetOp-A 4.1 19:40:20 20° SSE 19:44:05 71° ENE 19:49:26 10° N
COSMOS 2406 3.2 19:39:45 10° NNW 19:45:25 62° ENE 19:47:55 33° SE
Cosmos 1844 Rocket 3.2 19:40:49 10° SW 19:46:18 61° WNW 19:51:53 10° NNE
ISS -2.9 19:43:43 10° W 19:46:59 45° N 19:47:46 37° NE
Cosmos 2278 Rocket 2.9 19:45:29 10° S 19:51:33 32° E 19:55:36 10° NE
Lacrosse 4 Rocket 2.4 19:49:12 10° NNW 19:52:49 30° NE 19:52:52 30° NE
IRS-1A Rocket 4.4 19:47:47 12° SSE 19:53:23 82° WSW 19:59:15 10° NNW
Cosmos 1844 4.1 19:48:20 10° SW 19:53:58 65° WNW 19:59:36 10° NNE
Meteor 1-22 Rocket 4.3 19:49:35 10° S 19:55:25 65° E 20:01:27 10° NNE
Meteor 2-5 Rocket 3.8 19:50:14 10° NNW 19:55:56 83° W 20:00:46 15° S
Meteor 1-24 Rocket 3.6 19:52:40 10° N 19:58:16 81° ENE 20:01:37 26° SSE
Exosat Rocket 3.7 19:53:05 10° SSW 19:58:24 74° WNW 20:03:27 10° NNE
Okean 1 Rocket 3.3 19:56:06 10° SSW 20:00:34 70° W 20:05:05 10° N
NOSS 3-4 (A) 3.2 19:55:28 10° SSW 20:01:21 75° SE 20:07:40 10° NE
NOSS 3-4 (C) 3.2 19:55:34 10° SSW 20:01:27 74° SE 20:07:47 10° NE
SL-14 R/B 3.1 19:57:31 10° N 20:01:29 80° E 20:01:55 69° SE
Resurs 01 Rocket 2.0 20:03:26 44° ENE 20:03:26 44° ENE 20:07:31 10° N
Cosmos 1766 3.8 20:05:54 10° SSW 20:09:46 59° WNW 20:13:42 10° N
Cosmos 1833 Rocket 2.6 20:04:51 10° NNW 20:10:32 71° ENE 20:11:54 51° SE
Cosmos 2251 Rocket 3.9 20:08:16 10° NNW 20:13:27 46° ENE 20:13:44 45° ENE
Abrixas rocket 4.4 20:12:19 10° W 20:13:27 17° WSW 20:13:27 17° WSW
CENTAUR R/B 3.9 20:07:21 10° NW 20:15:07 50° WSW 20:22:00 16° S
ARIANE 5 R/B 3.8 20:20:04 31° NNE 20:20:04 31° NNE 20:22:52 10° N
SPOT 3 Rocket 3.4 20:20:50 58° SSE 20:21:54 87° ENE 20:27:05 10° NNW
Cosmos 1634 Rocket 4.1 20:17:43 10° SSW 20:23:54 76° W 20:30:09 10° N
ATLAS 2AS CENTAUR R/B 3.0 20:16:06 10° SW 20:24:05 89° SE 20:32:00 10° NE
SJ-6B 4.1 20:24:09 29° SW 20:25:14 35° W 20:28:46 10° NNW
Resurs 1-3 3.6 20:26:18 70° SW 20:26:35 74° WSW 20:31:01 10° NNW
ATLAS 3B R/B 2.6 20:20:54 10° NW 20:27:48 89° SW 20:29:50 51° SE
Cosmos 1892 Rocket 3.6 20:24:14 10° NNW 20:28:35 74° W 20:28:35 74° W
Cosmos 1655 Rocket 3.9 20:30:56 10° N 20:37:13 70° E 20:37:49 66° ESE
Cosmos 1340 Rocket 4.2 20:50:43 36° WNW 20:50:43 36° WNW 20:54:28 10° N
CZ-2C R/B 4.0 20:48:28 10° N 20:53:36 39° WNW 20:58:46 10° SW
Lacrosse 5 rocket 2.8 20:53:12 10° NW 20:56:20 38° NNW 20:56:20 38° NNW
Cosmos 2180 Rocket 4.4 20:57:17 66° SSW 20:58:15 84° W 21:04:39 10° N
MetOp-B 4.2 20:58:51 73° NNW 20:58:51 73° NNW 21:03:42 10° NNW
Cosmos 2279 Rocket 4.3 20:57:29 33° SSW 21:00:23 66° WNW 21:06:40 10° N
OBJECT-B 3.8 21:02:00 16° WNW 21:02:00 16° WNW 21:03:13 10° NW
Cosmos 2098 Rocket 3.8 20:54:54 10° N 21:01:40 81° W 21:01:45 80° WSW
Cosmos 2082 Rocket 2.3 20:58:00 10° NNW 21:03:08 72° WNW 21:03:08 72° WNW
Spot 2 Rocket 4.2 21:05:26 48° N 21:05:26 48° N 21:09:04 10° NNW
Terra 3.8 21:21:44 22° N 21:21:44 22° N 21:23:32 10° N
Lacrosse 4 Rocket 3.9 21:27:47 10° NW 21:29:10 19° WNW 21:29:10 19° WNW
Cosmos 2278 Rocket 3.2 21:33:00 36° W 21:34:30 44° NW 21:39:56 10° NNE
Resurs 01 Rocket 4.0 21:41:00 20° WNW 21:41:00 20° WNW 21:43:27 10° NW
ATLAS 2AS CENTAUR R/B 4.3 22:08:45 10° W 22:16:02 37° NNW 22:23:07 10° NE
ATLAS 3B R/B 4.4 22:12:39 10° WNW 22:17:06 22° WSW 22:17:06 22° WSW
